This is the latest recevied weather packets stored in our database for station/object K4MGY-13. If no packets are shown the sender has not sent any weather packets the latest 1 day(s).
| Time | Temp. | Humidity | Pressure | Rain* | Wind** | Luminosity | Snow |
|---|---|---|---|---|---|---|---|
| 1778014570 | 23.89° C | 46% | 1008.1 hPa | 0 mm | 0.89 m/s, 192° | - | - |
| 1778014268 | 23.89° C | 46% | 1008.1 hPa | 0 mm | 0.89 m/s, 197° | - | - |
| 1778013608 | 23.89° C | 44% | 1008.1 hPa | 0 mm | 1.34 m/s, 191° | - | - |
| 1778013278 | 24.44° C | 43% | 1008.1 hPa | 0 mm | 0.89 m/s, 180° | - | - |
| 1778012950 | 24.44° C | 43% | 1007.8 hPa | 0 mm | 0.89 m/s, 195° | - | - |
| 1778012619 | 24.44° C | 42% | 1008.1 hPa | 0 mm | 1.34 m/s, 201° | - | - |
| 1778012318 | 25° C | 42% | 1008.1 hPa | 0 mm | 1.34 m/s, 207° | - | - |
| 1778012018 | 25° C | 41% | 1008.1 hPa | 0 mm | 2.24 m/s, 204° | - | - |
| 1778011720 | 25° C | 41% | 1008.5 hPa | 0 mm | 2.24 m/s, 205° | - | - |
| 1778011088 | 25° C | 42% | 1008.5 hPa | 0 mm | 0.89 m/s, 184° | - | - |
| 1778010759 | 25° C | 41% | 1008.1 hPa | 0 mm | 1.34 m/s, 182° | - | - |
| 1778010430 | 25° C | 43% | 1008.1 hPa | 0 mm | 1.34 m/s, 209° | - | - |
| 1778010130 | 25° C | 45% | 1008.5 hPa | 0 mm | 1.34 m/s, 207° | - | - |
| 1778009828 | 24.44° C | 45% | 1008.8 hPa | 0 mm | 0.45 m/s, 185° | - | - |
| 1778009498 | 24.44° C | 46% | 1008.8 hPa | 0 mm | 1.34 m/s, 192° | - | - |
| 1778009200 | 23.89° C | 47% | 1009.5 hPa | 0 mm | 0.89 m/s, 207° | - | - |
| 1778008539 | 23.33° C | 49% | 1009.1 hPa | 0 mm | 0.89 m/s, 200° | - | - |
| 1778008238 | 23.33° C | 49% | 1009.1 hPa | 0 mm | 0.45 m/s, 194° | - | - |
| 1778007908 | 22.78° C | 50% | 1009.1 hPa | 0 mm | 1.34 m/s, 192° | - | - |
| 1778007578 | 22.22° C | 53% | 1009.5 hPa | 0 mm | 0.89 m/s, 163° | - | - |
| 1778007249 | 21.67° C | 53% | 1009.8 hPa | 0 mm | 0.45 m/s, 168° | - | - |
| 1778006918 | 21.67° C | 54% | 1009.5 hPa | 0 mm | 0.89 m/s, 154° | - | - |
| 1778006588 | 21.11° C | 55% | 1009.8 hPa | 0 mm | 0.89 m/s, 176° | - | - |
| 1778006290 | 21.11° C | 57% | 1009.5 hPa | 0 mm | 0.89 m/s, 161° | - | - |
| 1778005958 | 21.11° C | 57% | 1009.8 hPa | 0 mm | 0.45 m/s, 161° | - | - |
* Rain latest hour (hover to see other rain measurements)
** Current wind speed in m/s (hover to see current wind gust speed)